Location: Chicago
(41.8500°N, 87.6500°W)
Time: 17:07:44
(UTC-05:00)

ISS - Visible Passes

Search period start: 28 May 2016 00:00
Search period end: 07 June 2016 00:00
Orbit: 402 x 404 km, 51.6° (Epoch: 28 May)

Date Brightness Start Highest point End Pass type
(mag) Time Alt. Az. Time Alt. Az. Time Alt. Az.
28 May -0.1 00:26:38 10° NW 00:28:39 15° N 00:30:42 10° NNE visible
28 May -0.4 02:03:36 10° NNW 02:06:02 19° NNE 02:08:27 10° ENE visible
28 May -3.1 03:39:39 10° NW 03:42:54 72° NNE 03:46:09 10° ESE visible
28 May -2.6 21:55:26 10° WSW 21:58:38 55° NNW 22:01:52 10° NE visible
28 May -0.3 23:33:20 10° WNW 23:35:38 17° NNW 23:37:55 10° NNE visible
29 May -0.2 01:10:53 10° NNW 01:13:01 16° N 01:15:09 10° NE visible
29 May -2.0 02:46:59 10° NW 02:50:06 41° NNE 02:53:13 10° E visible
29 May -2.3 04:23:41 10° WNW 04:26:25 25° SW 04:29:08 10° SSE visible
29 May -3.4 21:02:37 10° SW 21:05:52 81° SE 21:09:08 10° ENE visible
29 May -0.6 22:40:01 10° WNW 22:42:38 22° NNW 22:45:15 10° NE visible
30 May -0.1 00:18:00 10° NW 00:19:58 15° N 00:21:55 10° NE visible
30 May -1.2 01:54:21 10° NW 01:57:13 27° NNE 02:00:04 10° E visible
30 May -3.2 03:30:38 10° WNW 03:33:47 48° SW 03:36:56 10° SE visible
30 May -1.2 21:46:46 10° W 21:49:41 30° NNW 21:52:37 10° NE visible
30 May -0.1 23:24:55 10° NW 23:26:54 15° N 23:28:54 10° NNE visible
31 May -0.6 01:01:43 10° NW 01:04:16 20° NNE 01:05:59 14° NE visible
31 May -0.9 02:37:48 10° NW 02:38:26 15° NW 02:38:26 15° NW visible
31 May -2.1 20:53:39 10° WSW 20:56:49 46° NNW 20:59:59 10° NE visible
31 May -0.2 22:31:39 10° NW 22:33:51 17° N 22:36:03 10° NNE visible
01 Jun -0.3 00:09:02 10° NNW 00:11:15 17° N 00:13:28 10° NE visible
01 Jun -0.9 01:45:06 10° NW 01:46:08 18° NW 01:46:08 18° NW visible
01 Jun -0.5 21:38:19 10° WNW 21:40:50 20° NNW 21:43:21 10° NE visible
01 Jun -0.2 23:16:12 10° NNW 23:18:11 15° N 23:20:11 10° NE visible
02 Jun -1.1 00:52:27 10° NW 00:54:28 25° N 00:54:28 25° N visible
02 Jun -0.3 22:23:10 10° NW 22:25:08 15° N 22:27:05 10° NE visible
02 Jun -1.0 23:59:49 10° NW 00:02:27 22° NNE 00:03:03 21° NE visible
03 Jun -0.3 21:29:56 10° NW 21:32:04 16° N 21:34:11 10° NNE visible
03 Jun -0.5 23:07:08 10° NNW 23:09:27 18° NNE 23:11:45 10° ENE visible
04 Jun -0.8 00:43:11 10° NW 00:44:20 20° NW 00:44:20 20° NW visible
04 Jun -0.4 22:14:20 10° NNW 22:16:24 15° N 22:18:26 10° NE visible
04 Jun -1.6 23:50:32 10° NW 23:53:07 32° N 23:53:07 32° N visible
05 Jun -0.4 21:21:22 10° NW 21:23:19 15° N 21:25:16 10° NE visible
05 Jun -1.2 22:57:53 10° NW 23:00:37 24° NNE 23:01:57 18° ENE visible
06 Jun -0.5 00:34:03 10° WNW 00:34:33 14° WNW 00:34:33 14° WNW visible
06 Jun -0.8 22:05:12 10° NNW 22:07:37 19° NNE 22:10:00 10° ENE visible
06 Jun -1.9 23:41:16 10° NW 23:43:25 37° NW 23:43:25 37° NW visible
